Wind_Speed
27 28 25 25 30 32 36 36 38 40 42 40 42 47 49 44 42 40 37 32 30 22 25 25 24 25 23 19 19 17 19 20 20 22 22 22 25 26 26 27 28 31 31 33
23 24 26 30 33 34 35 36 38 39 40 42 46 48 47 43 42 42 40 33 32 26 26 28 29 31 29 27 25 24 24 24 25 27 28 28 29 31 30 31 32 35 36 36
17 19 24 28 32 34 35 37 37 37 40 43 47 49 45 44 41 40 40 36 31 29 29 30 30 32 35 30 29 30 30 28 30 30 31 32 33 37 37 36 37 39 41 41
15 16 20 25 29 31 33 36 38 39 40 42 46 47 43 47 42 39 39 38 33 31 32 31 32 34 33 32 33 34 32 31 32 33 34 36 38 40 42 42 42 44 47 46
18 19 22 24 26 31 32 34 36 37 38 41 46 48 42 43 42 37 36 37 37 35 37 35 33 31 33 36 37 36 36 34 33 35 38 39 40 42 45 45 48 53 55 52
21 21 22 24 26 28 29 29 32 34 36 41 40 42 39 30 34 33 33 33 37 38 39 35 35 35 37 37 39 39 39 36 35 37 38 40 43 45 49 49 52 57 53 50
24 24 23 24 26 26 27 27 28 30 32 33 32 37 35 30 32 32 31 30 31 33 36 39 40 41 40 40 42 43 40 38 35 37 38 42 44 50 56 54 48 44 43 42
28 25 24 22 23 25 29 30 29 27 24 21 28 32 29 30 29 27 25 24 22 23 25 30 34 39 41 44 44 42 38 36 37 41 41 40 44 46 44 45 42 39 39 40
28 24 23 22 23 26 26 27 25 29 28 27 28 27 29 26 25 21 20 19 18 20 22 23 28 34 36 38 38 39 40 41 44 44 41 41 43 43 42 43 40 39 41 43
30 28 23 23 26 28 28 24 24 25 26 26 23 20 17 19 22 18 18 21 21 20 22 25 27 29 31 33 34 38 40 39 42 44 44 42 41 39 38 40 45 42 41 45
32 30 25 26 27 29 29 30 29 27 26 23 21 20 23 27 25 20 18 19 22 24 28 30 30 30 31 30 32 36 37 39 44 44 42 39 36 33 39 42 39 38 41 47
34 33 29 26 29 28 31 31 29 27 23 24 24 23 28 31 29 25 20 20 24 28 30 29 27 28 31 34 36 37 36 38 41 36 36 40 40 41 44 41 37 39 44 45
34 34 30 25 28 28 31 35 35 33 30 28 26 25 30 30 28 25 24 26 29 31 31 32 32 31 33 35 35 36 37 40 44 44 43 43 42 42 41 40 40 43 44 45
36 36 34 28 27 29 32 33 36 38 35 32 29 29 33 34 33 32 32 32 32 34 36 39 40 37 35 34 34 37 42 47 49 49 46 43 40 40 40 42 44 44 45 47
38 38 38 37 35 35 37 36 37 38 38 38 33 37 38 38 36 37 37 37 36 35 36 38 41 39 39 42 44 46 50 50 51 49 44 42 40 39 41 42 43 45 45 45
38 40 40 38 38 38 37 36 37 37 35 36 34 36 37 35 33 33 34 36 37 37 39 41 43 46 48 50 53 54 51 50 51 47 43 43 43 42 42 42 43 43 44 44
39 41 40 39 40 39 40 39 40 39 38 39 39 39 41 38 38 38 39 40 41 43 46 48 50 52 53 53 53 46 47 48 47 44 42 45 47 43 41 40 41 43 44 45
38 39 40 39 40 40 42 40 41 43 45 47 47 48 47 47 46 46 47 48 49 50 52 51 52 51 50 49 40 44 47 44 45 43 44 49 44 40 41 40 41 44 45 47
36 36 38 38 38 38 40 39 40 42 47 48 52 56 56 56 55 53 53 53 51 50 48 47 49 49 51 41 44 48 37 44 45 42 46 41 39 41 41 41 42 44 47 49
33 34 34 35 36 38 39 38 39 40 43 43 45 48 51 52 52 50 49 47 46 45 45 46 48 46 41 41 43 37 43 48 43 39 37 36 38 41 41 42 44 46 49 48
29 30 31 32 34 36 37 38 38 39 40 40 41 43 45 45 46 45 45 44 43 44 44 44 43 38 42 43 43 50 51 48 42 37 36 36 38 39 41 43 45 47 48 47
25 26 27 28 30 33 33 33 33 33 32 32 33 34 34 35 36 37 38 39 38 39 38 37 34 31 42 45 45 46 41 36 33 33 35 35 37 39 42 44 45 46 47 48
22 24 27 30 32 34 35 35 33 30 28 27 26 25 24 24 26 29 31 32 31 30 30 30 29 34 38 38 39 36 33 31 30 30 32 35 37 40 42 43 45 47 48 47
26 27 30 32 33 36 37 37 36 33 29 27 25 22 20 20 20 22 22 22 23 23 24 26 29 35 37 33 30 27 28 27 26 29 33 36 39 40 42 44 46 46 43 38
27 27 30 32 34 37 39 40 38 34 30 26 23 21 18 16 15 14 15 17 17 18 21 24 27 30 28 25 23 23 23 23 26 31 34 37 38 40 42 43 42 38 32 27
24 24 24 25 27 28 32 34 31 26 20 17 18 18 16 12 6 6 7 7 10 13 18 21 18 16 17 17 17 18 20 24 28 31 34 36 39 41 41 38 33 28 22 22
Wind_Direction
241 244 247 245 241 237 240 242 240 242 247 252 252 253 259 261 264 269 272 269 268 255 252 254 252 253 253 265 277 282 288 292 299 302 298 294 295 296 301 307 306 306 303 298
246 248 246 245 247 244 243 242 243 244 248 251 252 254 257 260 261 265 270 269 265 263 265 263 256 257 256 259 265 270 276 283 295 299 297 297 294 295 299 301 303 304 299 295
257 256 254 251 251 252 251 250 249 248 248 252 255 259 262 264 262 265 268 272 269 258 256 259 258 263 257 258 263 270 272 279 291 295 294 293 295 299 300 301 298 299 299 289
268 269 263 258 255 253 253 252 252 251 250 251 256 259 262 267 267 267 270 274 272 263 261 263 264 265 259 259 264 271 273 280 289 293 294 296 298 298 296 298 300 300 296 291
271 273 275 272 266 261 259 257 256 256 255 254 257 263 264 268 271 271 270 270 269 266 268 271 267 259 260 261 266 273 277 282 288 293 294 294 297 301 297 293 296 296 295 291
270 275 274 273 268 265 264 263 261 259 258 258 260 266 269 273 273 270 268 265 264 264 264 259 257 259 264 267 270 273 277 280 287 292 291 292 295 302 302 299 299 295 293 292
264 266 268 267 268 266 262 258 258 260 260 266 267 265 267 266 273 274 272 269 263 260 258 256 256 260 264 268 272 275 278 281 286 286 287 293 298 305 302 296 294 296 300 299
261 265 268 268 266 265 262 260 257 257 260 263 263 268 268 269 272 273 271 270 269 265 260 257 257 260 263 268 274 278 281 283 286 287 288 292 297 303 301 295 294 295 296 294
255 258 261 261 260 258 260 266 267 263 259 257 261 269 275 275 274 271 262 260 264 270 274 275 271 267 267 267 269 273 276 277 283 288 289 295 297 298 301 295 298 301 298 294
250 250 253 254 256 257 261 267 268 272 270 264 263 267 269 269 274 271 259 252 262 269 275 280 275 277 276 274 273 272 273 278 286 287 288 293 290 288 295 295 297 297 295 294
249 250 246 245 248 249 255 262 265 262 257 260 264 265 265 269 277 277 271 264 269 279 289 290 284 282 280 277 278 280 281 287 287 286 286 290 292 300 301 304 300 295 294 296
248 250 247 244 244 241 241 248 257 261 265 269 267 265 264 266 274 281 273 268 277 287 295 295 293 293 289 288 284 280 284 289 289 289 285 299 307 306 305 301 296 296 298 297
250 252 252 248 251 245 240 241 247 255 261 264 269 275 271 274 278 278 276 274 277 283 288 289 289 291 288 286 285 286 287 292 294 298 302 304 306 306 301 295 294 298 297 296
248 249 249 240 235 242 246 243 243 248 256 263 266 266 267 272 274 274 278 281 284 288 290 291 291 288 284 285 289 294 298 299 300 304 307 309 307 301 295 294 298 299 299 298
247 248 249 250 248 247 252 255 253 252 255 259 258 262 269 272 270 270 274 279 283 287 291 293 289 284 284 290 295 296 300 303 304 305 306 308 304 298 296 297 298 298 298 296
247 248 249 251 253 254 255 258 263 264 264 265 266 268 268 270 271 272 274 278 283 289 293 295 294 289 286 288 291 295 300 302 301 299 302 307 299 297 298 299 299 299 300 301
247 248 249 248 249 253 254 255 259 263 264 266 265 265 272 274 275 275 277 279 283 286 289 294 293 291 288 289 293 294 300 305 294 288 295 301 294 295 297 298 299 302 306 309
245 246 248 250 250 252 255 257 258 261 262 263 264 265 269 271 273 275 277 280 282 284 287 289 289 289 292 291 285 292 302 300 282 280 298 301 297 299 298 301 304 308 311 312
243 244 247 252 256 259 261 261 260 261 262 263 264 265 265 267 270 273 275 277 279 281 283 284 285 287 290 275 287 291 287 297 283 281 294 297 299 299 300 306 309 311 313 313
244 245 248 250 255 260 264 266 266 265 266 265 265 266 267 267 269 271 274 275 276 277 278 280 282 286 279 279 283 281 304 297 287 293 296 297 298 300 304 309 311 313 313 310
242 245 249 255 259 263 267 269 271 271 271 270 267 266 267 268 269 270 271 272 274 275 277 279 281 285 266 270 281 281 290 285 289 297 299 299 301 305 308 311 312 312 310 311
246 248 252 257 261 265 267 269 271 274 276 275 273 270 267 266 266 266 266 266 267 269 272 275 278 276 268 273 281 285 287 292 298 300 301 302 305 308 311 312 312 311 312 314
251 254 259 262 265 267 268 270 270 271 274 276 276 273 268 263 261 261 263 266 268 271 273 274 276 270 267 276 283 288 292 295 298 300 302 306 310 312 312 312 313 314 315 316
263 264 267 269 270 269 268 268 268 270 271 270 267 262 257 257 258 261 265 268 271 272 270 266 265 267 274 276 280 287 291 295 303 307 309 311 313 312 313 314 316 318 319 319
271 273 272 271 270 270 270 269 269 269 267 264 258 250 244 251 256 263 271 271 266 264 269 272 273 275 273 277 286 290 296 306 310 312 313 313 313 314 316 318 320 323 324 324
277 276 275 274 275 274 272 268 263 257 254 247 239 230 229 235 248 263 264 266 268 273 280 272 269 279 287 289 294 304 313 316 318 317 316 316 317 319 321 323 324 327 331 336
Height
5835 5838 5842 5845 5845 5847 5847 5850 5854 5856 5855 5856 5858 5855 5852 5857 5858 5860 5860 5862 5863 5864 5862 5861 5862 5860 5859 5858 5857 5857 5856 5854 5852 5851 5849 5846 5844 5841 5839 5836 5834 5831 5828 5824
5831 5834 5835 5836 5838 5840 5840 5842 5845 5848 5850 5848 5847 5845 5846 5849 5851 5853 5852 5855 5857 5857 5855 5856 5855 5853 5854 5853 5852 5851 5850 5848 5846 5844 5842 5839 5837 5834 5832 5830 5827 5824 5821 5818
5824 5829 5829 5830 5831 5833 5834 5836 5838 5840 5840 5838 5838 5838 5841 5840 5843 5845 5845 5847 5849 5850 5849 5849 5849 5848 5846 5846 5845 5843 5842 5841 5839 5837 5834 5831 5829 5827 5824 5821 5819 5816 5812 5809
5819 5822 5822 5822 5823 5825 5826 5827 5829 5830 5832 5831 5830 5831 5833 5831 5835 5837 5838 5839 5841 5842 5842 5842 5841 5840 5839 5839 5837 5834 5833 5832 5830 5828 5825 5822 5820 5818 5814 5811 5808 5805 5802 5798
5814 5814 5814 5815 5817 5816 5819 5820 5821 5822 5823 5823 5822 5822 5827 5824 5827 5829 5830 5831 5832 5834 5834 5833 5833 5833 5832 5831 5829 5827 5825 5824 5822 5820 5816 5814 5810 5807 5804 5800 5796 5793 5789 5785
5807 5808 5808 5809 5809 5810 5812 5813 5813 5813 5814 5813 5817 5817 5818 5819 5817 5821 5822 5824 5824 5825 5825 5825 5825 5825 5823 5821 5819 5818 5817 5815 5814 5811 5807 5803 5800 5797 5793 5788 5784 5780 5775 5771
5800 5801 5802 5802 5803 5804 5805 5806 5807 5806 5806 5807 5810 5808 5811 5812 5810 5813 5813 5814 5815 5816 5817 5818 5817 5817 5816 5812 5810 5809 5808 5806 5804 5800 5796 5794 5790 5786 5782 5777 5771 5767 5762 5758
5792 5795 5796 5797 5797 5798 5797 5800 5803 5804 5805 5806 5801 5800 5805 5804 5804 5806 5806 5806 5807 5807 5808 5809 5809 5809 5807 5804 5800 5799 5796 5795 5794 5792 5788 5784 5781 5775 5770 5766 5759 5754 5750 5746
5786 5788 5790 5790 5791 5791 5792 5793 5796 5796 5796 5796 5797 5797 5797 5798 5798 5800 5800 5801 5801 5800 5800 5800 5800 5798 5796 5794 5793 5792 5789 5788 5785 5783 5779 5777 5770 5765 5759 5755 5749 5744 5738 5734
5778 5781 5784 5784 5784 5785 5787 5789 5789 5789 5789 5790 5793 5793 5793 5792 5792 5794 5794 5795 5795 5794 5793 5793 5790 5787 5786 5784 5783 5782 5779 5778 5776 5772 5767 5763 5758 5753 5748 5745 5740 5732 5726 5721
5769 5773 5779 5779 5779 5781 5782 5782 5783 5784 5786 5786 5787 5791 5789 5787 5788 5789 5789 5789 5788 5787 5787 5785 5783 5780 5777 5775 5774 5773 5772 5769 5764 5759 5754 5751 5748 5744 5739 5733 5727 5720 5714 5709
5760 5764 5769 5773 5772 5775 5776 5776 5777 5778 5779 5779 5779 5784 5781 5780 5781 5782 5782 5782 5781 5779 5779 5777 5775 5773 5770 5768 5766 5763 5761 5758 5754 5748 5743 5740 5736 5731 5726 5720 5715 5709 5702 5696
5752 5756 5760 5766 5768 5768 5768 5768 5770 5772 5772 5773 5774 5778 5772 5772 5774 5775 5775 5775 5774 5773 5771 5769 5768 5765 5762 5759 5756 5753 5751 5746 5742 5738 5734 5730 5724 5718 5713 5707 5702 5696 5690 5684
5743 5747 5752 5757 5758 5758 5758 5760 5762 5764 5766 5767 5768 5767 5764 5765 5766 5766 5766 5766 5766 5765 5764 5761 5758 5756 5753 5750 5746 5743 5739 5735 5730 5726 5722 5718 5712 5706 5701 5696 5690 5684 5678 5672
5734 5738 5740 5744 5747 5749 5750 5751 5753 5755 5757 5757 5760 5756 5757 5756 5757 5757 5757 5757 5757 5757 5755 5752 5749 5746 5743 5739 5736 5732 5727 5722 5718 5714 5710 5706 5700 5695 5689 5684 5678 5672 5666 5660
5725 5728 5731 5735 5736 5739 5742 5744 5744 5745 5747 5747 5749 5749 5747 5748 5748 5748 5748 5748 5748 5747 5745 5742 5739 5735 5731 5728 5725 5721 5716 5712 5707 5703 5699 5694 5689 5684 5679 5673 5668 5662 5655 5648
5715 5719 5722 5725 5726 5728 5732 5735 5735 5736 5738 5738 5739 5738 5736 5739 5739 5739 5738 5738 5737 5736 5733 5730 5725 5722 5719 5717 5712 5709 5705 5700 5695 5691 5687 5682 5678 5673 5668 5662 5656 5650 5644 5636
5705 5709 5711 5714 5717 5720 5722 5723 5726 5727 5726 5726 5727 5726 5728 5727 5727 5728 5728 5727 5726 5724 5722 5719 5714 5710 5708 5704 5701 5698 5694 5690 5686 5682 5675 5672 5667 5663 5658 5651 5644 5638 5631 5623
5696 5700 5702 5705 5706 5710 5710 5712 5714 5715 5713 5715 5715 5714 5714 5715 5715 5716 5716 5714 5714 5712 5710 5707 5703 5699 5696 5694 5690 5687 5682 5679 5675 5669 5666 5661 5657 5653 5646 5639 5632 5625 5618 5611
5688 5691 5695 5696 5698 5698 5700 5701 5701 5703 5702 5703 5703 5702 5701 5702 5703 5704 5703 5702 5701 5700 5698 5696 5692 5690 5688 5686 5683 5678 5673 5670 5665 5659 5655 5651 5647 5642 5636 5629 5622 5614 5607 5601
5680 5683 5685 5686 5687 5688 5690 5690 5690 5691 5690 5691 5690 5690 5690 5690 5691 5691 5691 5690 5689 5688 5687 5685 5683 5682 5682 5677 5674 5670 5667 5662 5654 5650 5647 5642 5638 5633 5626 5619 5611 5604 5598 5591
5671 5673 5675 5677 5678 5680 5680 5679 5680 5679 5678 5677 5677 5677 5678 5678 5679 5679 5679 5678 5678 5677 5677 5676 5675 5674 5673 5667 5664 5660 5656 5651 5645 5642 5639 5635 5630 5624 5616 5609 5602 5595 5588 5580
5663 5665 5666 5668 5670 5669 5668 5669 5669 5670 5669 5668 5668 5668 5668 5669 5669 5669 5669 5669 5669 5669 5669 5668 5667 5665 5662 5660 5657 5652 5648 5644 5640 5637 5633 5628 5621 5614 5607 5600 5593 5586 5578 5570
5654 5655 5656 5657 5658 5657 5657 5658 5659 5660 5661 5661 5661 5661 5662 5662 5663 5663 5663 5663 5663 5662 5661 5660 5660 5658 5655 5653 5649 5644 5642 5639 5635 5631 5625 5619 5612 5605 5598 5590 5584 5576 5567 5559
5646 5648 5647 5647 5647 5646 5646 5647 5648 5650 5651 5652 5653 5655 5657 5657 5658 5658 5658 5657 5657 5656 5655 5654 5653 5651 5650 5646 5643 5641 5637 5633 5629 5623 5617 5611 5604 5597 5590 5582 5574 5566 5559 5552
5639 5639 5639 5638 5637 5637 5635 5634 5637 5640 5642 5644 5646 5648 5651 5653 5655 5654 5654 5653 5653 5652 5651 5649 5648 5646 5644 5642 5639 5636 5632 5627 5622 5616 5610 5603 5596 5588 5581 5574 5567 5560 5554 5548